FW5697 Weather Reports


time (UTC)temp
C
wind
direction
speed
KPH
gust
KPH
rain 1hr
cm
rain 24hr
cm
rain mn
cm
humidity
%
barometer
mb
20260903113032 22 0 0.0 0.0 0.00 0.00 0.00 96 1017.9
20260903111539 22 0 0.0 0.0 0.00 0.00 0.00 96 1017.5
20260903110045 22 0 0.0 0.0 0.00 0.00 0.00 96 1017.4
20260903104535 22 0 0.0 0.0 0.00 0.00 0.00 96 1017.3
20260903103036 22 0 0.0 0.0 0.00 0.00 0.00 96 1017.3
20260903101539 22 0 0.0 0.0 0.00 0.00 0.00 95 1017.1
20260903100035 22 0 0.0 0.0 0.00 0.00 0.00 95 1017.1
20260903094533 22 0 0.0 0.0 0.00 0.00 0.00 95 1017.1
20260903093035 22 0 0.0 0.0 0.00 0.00 0.00 95 1017.0
20260903091533 22 0 0.0 0.0 0.00 0.00 0.00 95 1016.9
20260903090036 22 0 0.0 0.0 0.00 0.00 0.00 95 1017.0
20260903084534 22 0 0.0 0.0 0.00 0.00 0.00 95 1017.2
20260903083038 22 0 0.0 0.0 0.00 0.00 0.00 95 1017.2
20260903081535 23 0 0.0 0.0 0.00 0.00 0.00 94 1017.1
20260903080036 23 0 0.0 0.0 0.00 0.00 0.00 94 1017.2
20260903074533 23 0 0.0 0.0 0.00 0.00 0.00 94 1017.1
20260903073035 23 0 0.0 0.0 0.00 0.00 0.00 94 1017.0
20260903071534 23 0 0.0 0.0 0.00 0.00 0.00 94 1017.1
20260903070037 23 0 0.0 0.0 0.00 0.00 0.00 94 1017.1
20260903064532 23 0 0.0 0.0 0.00 0.00 0.00 93 1017.0
20260903063102 23 0 0.0 0.0 0.00 0.00 0.00 93 1017.1
20260903061534 23 0 0.0 0.0 0.00 0.00 0.00 93 1017.2
20260903060034 23 0 0.0 0.0 0.00 0.00 0.00 93 1017.2
20260903054533 23 0 0.0 0.0 0.00 0.00 0.00 92 1017.1
20260903053033 23 0 0.0 0.0 0.00 0.00 0.00 92 1017.2
20260903051543 24 0 0.0 0.0 0.00 0.00 0.00 92 1017.3
20260903050050 24 0 0.0 0.0 0.00 0.00 0.00 91 1017.2
20260903044533 24 0 0.0 0.0 0.00 0.00 0.00 91 1017.2
20260903043033 24 0 0.0 0.0 0.00 0.00 0.00 91 1017.2
20260903041533 25 0 0.0 0.0 0.00 0.00 0.00 90 1017.2
20260903040038 25 0 0.0 0.0 0.00 0.00 0.00 90 1017.2
20260903034535 25 0 0.0 0.0 0.00 0.00 0.00 89 1017.3
20260903033037 25 0 0.0 0.0 0.00 0.00 0.00 89 1017.4
20260903031534 25 0 0.0 0.0 0.00 0.00 0.00 89 1017.5
20260903030034 25 0 0.0 0.0 0.00 0.00 0.00 88 1017.6
20260903024535 25 0 0.0 0.0 0.00 0.00 0.00 87 1017.5
20260903023041 26 0 0.0 0.0 0.00 0.00 0.00 86 1017.5
20260903021535 26 0 0.0 0.0 0.00 0.00 0.00 85 1017.6
20260903020040 26 0 0.0 0.0 0.00 0.00 0.00 85 1017.5
20260903014536 26 0 0.0 0.0 0.00 0.00 0.00 84 1017.5
20260903013036 26 0 0.0 0.0 0.00 0.00 0.00 82 1017.2
20260903011552 27 0 0.0 0.0 0.00 0.00 0.00 81 1016.9
20260903010033 27 0 0.0 0.0 0.00 0.00 0.00 79 1016.7
20260903004532 27 0 0.0 0.0 0.00 0.00 0.00 76 1016.8
20260903003034 28 0 0.0 0.0 0.00 0.00 0.00 74 1016.6
20260903001536 28 0 0.0 0.0 0.00 0.00 0.00 73 1016.5
20260903000035 29 0 0.0 0.0 0.00 0.00 0.00 72 1016.4
20260902234541 30 0 0.0 0.0 0.00 0.00 0.00 67 1016.3
20260902233037 31 0 0.0 3.2 0.00 0.00 0.00 63 1016.3
20260902231547 32 0 0.0 0.0 0.00 0.00 0.00 61 1016.2
20260902230034 32 0 0.0 0.0 0.00 0.00 0.00 59 1016.1
20260902224546 33 0 0.0 0.0 0.00 0.00 0.00 54 1016.1
20260902223035 34 0 0.0 0.0 0.00 0.00 0.00 53 1016.3
20260902221536 35 0 0.0 0.0 0.00 0.00 0.00 52 1016.2
20260902220032 35 98 0.0 1.6 0.00 0.00 0.00 49 1016.2
20260902214535 36 0 0.0 1.6 0.00 0.00 0.00 48 1016.2
20260902213033 36 71 0.0 3.2 0.00 0.00 0.00 47 1016.3
20260902211545 36 0 0.0 3.2 0.00 0.00 0.00 47 1016.4
20260902210035 35 32 1.6 6.4 0.00 0.00 0.00 47 1016.5
20260902204535 36 0 0.0 4.8 0.00 0.00 0.00 48 1016.6
20260902203034 36 162 0.0 3.2 0.00 0.00 0.00 47 1016.7
20260902201538 35 38 1.6 6.4 0.00 0.00 0.00 48 1017.0
20260902200035 35 22 1.6 6.4 0.00 0.00 0.00 48 1017.1
20260902194540 35 36 1.6 4.8 0.00 0.00 0.00 48 1017.3
20260902193038 35 355 1.6 4.8 0.00 0.00 0.00 49 1017.4
20260902191537 35 148 0.0 4.8 0.00 0.00 0.00 50 1017.6
20260902190033 34 0 0.0 4.8 0.00 0.00 0.00 53 1017.7
20260902184546 33 0 0.0 0.0 0.00 0.00 0.00 53 1018.0
20260902183036 34 0 0.0 3.2 0.00 0.00 0.00 52 1018.0
20260902181533 35 0 0.0 6.4 0.00 0.00 0.00 50 1018.1
20260902180032 34 0 0.0 4.8 0.00 0.00 0.00 52 1018.3
20260902174534 33 332 1.6 4.8 0.00 0.00 0.00 56 1018.4
20260902173034 32 0 0.0 3.2 0.00 0.00 0.00 55 1018.6
20260902171534 33 22 1.6 8.0 0.00 0.00 0.00 56 1018.9
20260902170038 33 0 0.0 3.2 0.00 0.00 0.00 57 1019.0
20260902164534 32 5 1.6 4.8 0.00 0.00 0.00 56 1019.1
20260902163032 32 0 0.0 4.8 0.00 0.00 0.00 59 1019.2
20260902161549 32 275 0.0 6.4 0.00 0.00 0.00 61 1019.5
20260902160034 31 0 0.0 6.4 0.00 0.00 0.00 63 1019.5
20260902154535 31 0 0.0 4.8 0.00 0.00 0.00 65 1019.6
20260902153032 30 291 1.6 6.4 0.00 0.00 0.00 67 1019.7
20260902151537 30 44 1.6 4.8 0.00 0.00 0.00 71 1019.7
20260902150037 28 337 0.0 4.8 0.00 0.00 0.00 78 1019.7
20260902144537 28 0 0.0 3.2 0.00 0.00 0.00 80 1019.6
20260902143032 27 0 0.0 3.2 0.00 0.00 0.00 82 1019.6
20260902141537 26 0 0.0 3.2 0.00 0.00 0.00 85 1019.7
20260902140036 25 0 0.0 1.6 0.00 0.00 0.00 89 1019.7
20260902134538 24 0 0.0 0.0 0.00 0.00 0.00 93 1019.5
20260902133031 23 0 0.0 0.0 0.00 0.00 0.00 95 1019.5
20260902131533 23 0 0.0 0.0 0.00 0.00 0.00 97 1019.6
20260902130034 22 0 0.0 0.0 0.00 0.00 0.00 97 1019.6
20260902124532 22 0 0.0 0.0 0.00 0.00 0.00 97 1019.7
20260902123041 22 0 0.0 0.0 0.00 0.00 0.00 97 1019.6
20260902121535 21 0 0.0 0.0 0.00 0.00 0.00 97 1019.5
20260902120036 21 0 0.0 0.0 0.00 0.00 0.00 97 1019.2
20260902114539 21 0 0.0 0.0 0.00 0.00 0.00 97 1019.1